Regional Weather Roundup
Issued by NWS State College, PA

Home | Current Version | Previous Version | Graphics & Text | Print | Product List | Glossary On
Versions: 1 2 3 4 5 6 7 8 9 10 11 12 13 14 15 16 17 18 19 20 21 22 23 24 25 26 27 28 29 30 31 32 33 34 35 36 37 38 39 40 41 42 43 44 45 46 47 48 49 50
000
ASUS41 KCTP 271210
RWRCTP

REGIONAL WEATHER ROUNDUP
NATIONAL WEATHER SERVICE STATE COLLEGE PA
700 AM EST MON FEB 27 2017

Note: "fair" indicates few or no clouds below 12,000 feet with no
significant weather and/or obstructions to visibility.

* = STATION THAT DOES NOT REPORT PRECIPITATION /E.G. RAIN...SNOW...ETC/
    THUNDER OR FOG.

PAZ002>004-007>009-013>016-020>023-029>032-271300-
WESTERN PENNSYLVANIA

CITY           SKY/WX    TMP DP  RH WIND       PRES   REMARKS
ERIE           CLOUDY    37  18  46 S10       30.21R
MEADVILLE      CLOUDY    33  15  47 SW8       30.21R
FRANKLIN*      CLOUDY    30  12  47 SW8       30.24R
NEW CASTLE     PTSUNNY   33  16  49 CALM      30.26R
BEAVER COUNTY  CLOUDY    36  16  44 S8        30.25
BUTLER*        CLOUDY    34  14  44 S6        30.26S
PITTSBURGH INT CLOUDY    35  16  45 S3        30.26R
PITTSBURGH     CLOUDY    36  12  37 S12       30.26R
INDIANA*       CLOUDY    28  21  74 CALM      30.30R
LATROBE        MOCLDY    32  23  69 CALM      30.29R
WASHINGTON CO* CLOUDY    36  16  44 SW3       30.29S
$$

PAZ004>006-010>012-017>019-024>028-033>037-041-042-045-046-049>053-271300-
CENTRAL PENNSYLVANIA

CITY           SKY/WX    TMP DP  RH WIND       PRES   REMARKS
BRADFORD       CLOUDY    30  13  49 SW7       30.20R
DUBOIS         CLOUDY    29  12  49 SW6       30.23R
CLEARFIELD       N/A    N/A N/A N/A MISG      30.28R
JOHNSTOWN      CLOUDY    34  12  40 SW8       30.25R
ALTOONA        CLOUDY    32  15  49 CALM      30.29R
STATE COLLEGE  CLEAR     30  14  51 W7        30.29R
WILLIAMSPORT   CLOUDY    23  17  78 CALM      30.34R
SELINSGROVE    MOCLDY    20  17  88 CALM      30.35R
FT INDIANTOWN  CLOUDY    24  23  99 CALM      30.37R
CAPITAL CITY   CLOUDY    31  23  72 CALM      30.38R
HARRISBURG     CLOUDY    32  24  72 E6        30.37R
YORK           CLOUDY    28  25  88 W3        30.37R
$$

PAZ038>040-043-044-047-048-054-055-060>062-067>071-271300-
EASTERN PENNSYLVANIA

CITY           SKY/WX    TMP DP  RH WIND       PRES   REMARKS
SCRANTON       CLEAR     27  18  69 S3        30.31R
MOUNT POCONO   CLEAR     27  14  58 W8        30.26R
ALLENTOWN      CLEAR     23  16  74 CALM      30.37R
QUAKERTOWN*    MOSUNNY   23  19  86 CALM      30.38R
READING        PTCLDY    26  21  81 CALM      30.37R
LANCASTER      CLOUDY    26  23  88 E3        30.37R
COATESVILLE    MOSUNNY   32  25  74 CALM      30.38R
POTTSTOWN      MOCLDY    25  20  81 CALM      30.40R
BLUE BELL      PTCLDY    27  21  80 CALM      30.38R
DOYLESTOWN     PTCLDY    27  19  72 CALM      30.38R
WILLOW GROVE   NOT AVBL
NORTH PHILA    CLOUDY    29  23  78 CALM      30.41R
PHILADELPHIA   PTCLDY    34  24  67 S6        30.41R
$$



USA.gov is the U.S. government's official web portal to all federal, state and local government web resources and services.